Lid_Strength_Index
8 7 7 8 8 8 8 8 11 9 9 7 6 5 5 4 4 4 4 3 3 3 2 2 2 2 1 1 0 0 1 1 1 1 2 3 4 4 4 4 4 5 6 7
9 8 8 9 8 8 8 8 8 8 8 5 4 4 4 4 4 4 4 3 3 3 2 3 2 2 2 1 1 1 2 2 2 3 2 3 2 4 4 4 4 4 5 6
12 8 8 10 8 8 7 7 7 9 7 5 5 5 4 4 4 4 3 3 3 2 2 2 2 2 2 1 1 1 3 3 4 4 4 5 4 4 4 4 3 4 5 5
11 10 15 8 6 6 7 7 6 6 6 5 5 4 4 3 3 3 3 3 2 2 2 1 2 2 1 1 1 1 3 3 3 3 5 5 4 5 5 4 3 3 4 4
13 13 10 8 7 7 8 8 5 6 5 5 4 4 4 3 2 3 3 2 2 1 1 1 2 1 1 1 1 2 2 3 3 3 4 3 4 5 4 4 4 4 4 4
11 14 16 9 6 5 5 11 5 5 5 6 5 9 7 3 2 2 2 2 2 1 1 2 2 1 2 2 2 3 2 2 2 2 3 2 4 4 5 5 5 5 5 4
13 13 12 8 6 5 13 11 6 6 6 5 6 5 4 3 3 2 2 2 1 1 2 2 1 1 2 2 2 1 1 1 1 1 2 2 3 4 4 4 4 4 5 4
13 15 17 7 7 12 8 6 6 6 6 5 4 4 3 3 3 2 2 2 1 2 2 1 1 1 2 2 1 0 0 1 2 1 2 2 1 2 2 2 3 3 3 4
12 13 7 6 8 7 7 7 6 5 4 4 4 4 3 3 3 2 2 2 1 2 1 1 1 1 2 1 1 1 1 1 0 1 2 1 2 1 2 2 3 3 4 3
10 9 8 8 7 7 6 7 6 5 5 4 5 4 4 4 3 3 2 2 1 2 2 2 2 1 1 0 0 0 1 1 1 1 1 0 1 0 1 1 1 2 2 2
9 7 6 6 6 8 8 7 6 6 5 5 4 4 4 4 4 3 2 2 1 2 2 1 1 1 0 0 0 1 1 1 1 1 1 1 0 0 1 0 1 2 1 1
10 6 7 6 4 4 5 6 6 7 7 5 4 4 3 3 3 3 2 2 2 1 1 1 1 1 1 0 1 1 1 1 1 1 1 1 1 1 3 2 3 4 3 2
6 4 4 4 3 3 4 5 5 5 6 6 4 4 3 3 3 3 2 2 2 2 1 1 1 1 0 -0 0 1 2 1 1 1 1 1 1 1 2 2 5 6 5 5
4 4 5 4 5 4 4 3 4 4 5 5 5 4 4 3 4 3 3 2 1 1 1 1 1 1 0 -0 0 0 0 3 1 1 1 1 1 1 1 2 2 1 5 4
5 5 4 4 3 3 3 4 5 6 5 5 5 6 5 5 4 4 3 1 1 1 1 1 1 1 -0 -0 0 0 1 1 0 0 1 1 1 1 1 1 1 1 1 5
6 6 5 6 5 4 4 5 5 7 7 5 6 7 6 4 3 3 3 1 2 2 1 1 1 0 0 -0 0 0 0 2 3 1 1 1 1 1 1 1 1 1 1 1
8 9 7 8 6 5 5 5 5 6 6 5 5 7 6 4 3 3 3 2 1 1 1 1 1 0 0 0 0 1 1 1 3 1 1 1 1 1 1 1 1 1 1 1
7 7 7 7 6 6 5 4 5 5 5 5 6 6 6 4 4 3 3 2 2 1 1 1 0 0 0 0 0 0 1 1 1 1 1 1 1 1 1 1 1 1 1 1
7 8 9 8 6 6 4 4 5 5 5 5 6 6 5 4 3 3 3 6 5 4 5 3 4 2 0 1 1 1 1 1 1 2 1 3 1 1 1 1 1 1 1 1
7 8 8 8 7 6 5 6 6 6 7 6 6 6 8 8 6 6 7 10 11 10 8 8 4 4 4 2 5 1 1 1 2 2 2 2 2 1 1 3 1 1 1 1
7 8 9 9 10 9 9 9 9 9 10 10 10 10 10 11 12 11 11 13 11 11 10 10 10 9 8 9 5 2 1 2 2 2 2 1 2 2 1 1 1 1 1 1
6 7 8 8 9 10 10 10 10 10 10 11 11 12 12 12 12 13 13 13 12 13 11 12 12 13 11 11 10 9 8 8 6 3 2 2 2 2 2 2 2 2 1 1
7 6 7 8 8 9 9 9 10 10 11 10 10 11 11 11 11 12 13 11 10 11 10 11 12 12 12 11 11 11 11 12 11 10 10 8 8 6 5 5 7 8 3 3
7 7 7 6 6 7 8 8 8 8 8 8 8 8 8 9 9 8 8 9 10 9 9 10 10 10 10 9 10 11 12 12 12 12 12 12 11 11 11 11 10 10 11 12
7 7 7 8 8 8 8 7 8 8 8 8 8 8 7 7 8 8 8 8 10 8 8 10 10 9 7 7 7 7 8 10 11 11 11 12 12 12 12 11 11 11 11 11
7 7 7 7 8 7 8 7 8 7 7 8 7 6 6 6 6 6 6 7 6 8 7 7 7 7 6 7 7 7 7 7 7 8 9 10 11 11 11 10 10 10 10 10
7 7 7 7 7 6 6 6 6 6 6 6 7 6 6 6 6 6 8 6 6 6 6 6 5 6 5 5 5 5 5 5 7 6 6 7 7 8 9 9 9 9 10 10